Other Public Products
Issued by NWS Grand Forks, ND

Home | Current Version | Previous Version | Text Only | Print | Product List | Glossary Off
Versions: 1 2 3 4 5 6 7 8 9 10 11 12 13 14 15 16 17 18 19 20 21 22 23 24 25 26 27 28 29 30 31 32 33 34 35 36 37 38 39 40 41 42 43 44 45 46 47 48 49 50

000
FPUS83 KFGF 301231
OPUFGF
PRAIRIE TO PINES WEATHER ROUNDUP
NATIONAL WEATHER SERVICE EASTERN NORTH DAKOTA/GRAND FORKS ND
700 AM CDT THU OCT 30 2014

 **SATELLITE DATA USED TO AUGMENT SKY COVER AT AUTOMATED STATIONS**
 *****  WEATHER ACROSS EASTERN NORTH DAKOTA  *****

CITY           SKY/WX    TMP DP  RH WIND       PRES   REMARKS
GRAND FORKS    MOCLDY    30  28  92 NW10      30.14R WCI  21
6HR MIN TEMP:  30; 6HR MAX TEMP:  38;

GRAND FORKS AF CLEAR     29  29  99 N8        30.15R WCI  21
GRAND CITY NWS   N/A     30 N/A N/A N5          N/A
BUXTON           N/A     37  37  99 N10         N/A
DEVILS LAKE    MOCLDY    30  23  74 N14       30.17R WCI  20
6HR MIN TEMP:  28; 6HR MAX TEMP:  34;

FARGO          LGT RAIN  40  38  93 N10       30.08R FOG
6HR MIN TEMP:  40; 6HR MAX TEMP:  41; 6HR PCP:  0.04;

WAHPETON ARPT  CLOUDY    37  36  93 CALM      30.04R
$$

 *****  WEATHER ACROSS CENTRAL AND WESTERN NORTH DAKOTA  *****

CITY           SKY/WX    TMP DP  RH WIND       PRES   REMARKS
JAMESTOWN      CLOUDY    34  33  96 N18G24    30.11R WCI  23
6HR MIN TEMP:  34; 6HR MAX TEMP:  40;

BISMARCK       CLEAR     34  32  92 N10       30.18R
6HR MIN TEMP:  34; 6HR MAX TEMP:  39;

MINOT          CLOUDY    30  28  92 N13       30.25R WCI  20
6HR MIN TEMP:  28; 6HR MAX TEMP:  32;

MINOT AFB      CLOUDY    31  30  99 N9        30.25R WCI  22
6HR MIN TEMP:  28; 6HR MAX TEMP:  31;

GARRISON         N/A     31  29  92 N9        30.21R WCI  23
6HR MIN TEMP:  31; 6HR MAX TEMP:  35;

WILLISTON      CLOUDY    37  32  82 NW9       30.27R
6HR MIN TEMP:  34; 6HR MAX TEMP:  37;

DICKINSON      CLOUDY    34  32  92 NW12      30.21R FOG
6HR MIN TEMP:  32; 6HR MAX TEMP:  38;

HETTINGER      MOCLDY    33  31  92 NW16      30.23R WCI  23
6HR MIN TEMP:  30; 6HR MAX TEMP:  38;

$$

 *****  OTHER OBSERVATIONS NORTHEAST NORTH DAKOTA  *****

CITY           SKY/WX    TMP DP  RH WIND       PRES   REMARKS
WALHALLA       FAIR      36  32  87 N13G18    30.19R
LANGDON        CLOUDY    32  28  86 N15G21    30.17R WCI  22
CAVALIER       CLOUDY    36  32  87 N12       30.18R
GRAFTON        CLOUDY    32  30  93 N10       30.17R WCI  24
CANDO          CLOUDY    30  28  93 N13       30.21R WCI  20
FORT TOTTEN    NOT AVBL
ROLLA          CLOUDY    30  30 100 N17G23    30.21R WCI  18
RUGBY          PTSUNNY   25  25 100 N3        30.23R
 ***** THE ABOVE OBSERVATIONS ARE NON NWS ARE NOT QUALITY
        CONTROLLED AND MAY MIS-REPORT RAIN FOR SNOW...
$$

 *****  OTHER OBSERVATIONS SOUTHEAST NORTH DAKOTA *****

CITY           SKY/WX    TMP DP  RH WIND       PRES   REMARKS
COOPERSTOWN    NOT AVBL
VALLEY CITY    CLOUDY    36  36 100 N18       30.09R
OAKES            N/A     36  36 100 NW14G21   30.06R
GWINNER        CLOUDY    43  43 100 NW9       30.05R
BUFFALO        NOT AVBL
WYNDMERE       NOT AVBL
 ***** THE ABOVE OBSERVATIONS ARE NON NWS ARE NOT QUALITY
       CONTROLLED AND MAY MIS-REPORT RAIN FOR SNOW...
$$

  *****  WEATHER ACROSS NORTHERN MINNESOTA  *****

CITY           SKY/WX    TMP DP  RH WIND       PRES   REMARKS
FLAG ISLAND    CLOUDY    36  34  93 NW13      30.09R
WARROAD        CLOUDY    34  30  86 NW8       30.12R
ROSEAU         CLOUDY    34  28  80 NW3       30.12R
HALLOCK        MOCLDY    34  30  86 N7        30.16R
THF RVR FALLS  PTCLDY    32  28  86 N8        30.12R WCI  25
6HR MIN TEMP:  34; 6HR MAX TEMP:  36;

HALSTAD          N/A     38  37  96 N8          N/A
FOSSTON        CLOUDY    34  32  93 CALM      30.09R
BAUDETTE       CLOUDY    35  32  88 W3        30.07S
6HR MIN TEMP:  33; 6HR MAX TEMP:  35; 6HR PCP: TRACE;

WASKISH        MOCLDY    32  30  93 CALM      30.09R
CROOKSTON      CLOUDY    36  34  93 N8        30.14R
$$
  *****  WEATHER ACROSS CENTRAL AND WEST MINNESOTA  *****

CITY           SKY/WX    TMP DP  RH WIND       PRES   REMARKS
BEMIDJI        MOCLDY    34  32  93 CALM      30.06R
PARK RAPIDS    LGT RAIN  35  34  96 NE5       30.04R
6HR MIN TEMP:  33; 6HR MAX TEMP:  36; 6HR PCP: TRACE;

WADENA         CLOUDY    36  34  93 NE3       30.04R
DETROIT LAKES  DRIZZLE   37  36  93 NE5       30.06R
MOORHEAD       CLOUDY    39  39 100 N5        30.07R FOG
FERGUS FALLS   CLOUDY    39  37  93 CALM      30.06R
ELBOW LAKE     LGT RAIN  37  37  97 CALM      30.03R
6HR MIN TEMP:  37; 6HR MAX TEMP:  38;

MORRIS MN      CLOUDY    37  36  93 CALM      30.01R
STAPLES        CLOUDY    36  34  93 N3        30.05R
WHEATON        CLOUDY    37  36  93 CALM      30.05R
$$
  *****  WEATHER ELSEWHERE ACROSS MINNESOTA  *****

CITY           SKY/WX    TMP DP  RH WIND       PRES   REMARKS
DULUTH         CLOUDY    36  32  85 NW3       30.03R
6HR MIN TEMP:  36; 6HR MAX TEMP:  36; 6HR PCP: TRACE;

INTRNTL FALLS  CLOUDY    34  32  92 W5        30.06R
6HR MIN TEMP:  33; 6HR MAX TEMP:  35; 6HR PCP: TRACE;

ELY            CLOUDY    34  32  93 CALM      30.03R
CLOQUET        CLOUDY    34  32  93 W3        30.04S
BRAINERD       CLOUDY    36  33  89 NE5       30.05R
6HR MIN TEMP:  34; 6HR MAX TEMP:  36; 6HR PCP: TRACE;

HIBBING        CLOUDY    36  32  85 N6        30.04S
6HR MIN TEMP:  35; 6HR MAX TEMP:  36; 6HR PCP: TRACE;

ALEXANDRIA     CLOUDY    39  34  82 CALM      30.02R
6HR MIN TEMP:  37; 6HR MAX TEMP:  39;

SAINT CLOUD    CLOUDY    39  34  82 CALM      30.03R
6HR MIN TEMP:  38; 6HR MAX TEMP:  39; 6HR PCP:  0.01;

MINNEAPOLIS    CLOUDY    39  33  79 E5        30.05S
6HR MIN TEMP:  37; 6HR MAX TEMP:  39;

$$

  *****  WEATHER ACROSS SOUTH DAKOTA  *****

CITY           SKY/WX    TMP DP  RH WIND       PRES   REMARKS
SIOUX FALLS    MOCLDY    43  34  70 NW10      29.99R
6HR MIN TEMP:  40; 6HR MAX TEMP:  47; 6HR PCP: TRACE;

BROOKINGS      NOT AVBL
WATERTOWN      CLEAR     34  32  92 CALM      30.00R
6HR MIN TEMP:  33; 6HR MAX TEMP:  44;

HURON          CLEAR     36  32  85 NW9       30.05R
6HR MIN TEMP:  35; 6HR MAX TEMP:  46;

SISSETON         N/A     37  37 100 CALM      30.01R
ABERDEEN       CLEAR     40  37  89 NW10      30.05R
6HR MIN TEMP:  32; 6HR MAX TEMP:  45;

MITCHELL       CLEAR     40  34  79 NW10      30.05R
PIERRE         CLEAR     43  37  79 NW18      30.11R
6HR MIN TEMP:  43; 6HR MAX TEMP:  49;

MOBRIDGE       CLEAR     41  36  82 NW18      30.10R
RAPID CITY     CLEAR     35  29  78 N9        30.21R
6HR MIN TEMP:  34; 6HR MAX TEMP:  43;

$$

  *****  SOME WEATHER IN NEARBY STATES *****

CITY           SKY/WX    TMP DP  RH WIND       PRES   REMARKS
GLASGOW MT     CLOUDY    34  31  88 N8        30.28R
6HR MIN TEMP:  28; 6HR MAX TEMP:  37;

GREAT FALLS MT CLEAR     34  29  82 S8        30.23S
6HR MIN TEMP:  32; 6HR MAX TEMP:  42;

CHEYENNE WY    CLEAR     41  23  48 NW6       30.32R
6HR MIN TEMP:  40; 6HR MAX TEMP:  47;

SCOTTSBLUFF NE CLEAR     32  28  85 NW8       30.29R WCI  25
6HR MIN TEMP:  32; 6HR MAX TEMP:  43;

OMAHA NE       PTCLDY    41  35  79 N3        30.02R
6HR MIN TEMP:  40; 6HR MAX TEMP:  48;

DES MOINES IA  CLOUDY    44  36  73 E7        30.06S
6HR MIN TEMP:  41; 6HR MAX TEMP:  45;

DAVENPORT IA   MOCLDY    35  32  88 SE5       30.12S
6HR MIN TEMP:  30; 6HR MAX TEMP:  36;

CHICAGO IL     MOCLDY    35  31  85 CALM      30.13S
6HR MIN TEMP:  32; 6HR MAX TEMP:  38;

EAU CLAIRE WI  CLOUDY    35  32  88 CALM      30.06S
6HR MIN TEMP:  34; 6HR MAX TEMP:  36;

LA CROSSE WI   CLOUDY    38  35  89 SE6       30.08S
6HR MIN TEMP:  36; 6HR MAX TEMP:  38;

$$

  *****  SOME NATIONAL WEATHER *****

CITY           SKY/WX    TMP DP  RH WIND       PRES   REMARKS
LA GUARDIA NY  PTCLDY    50  44  80 NW7       29.98R



USA.gov is the U.S. government's official web portal to all federal, state and local government web resources and services.